Startpagina
METAR-TAF:

METAR-TAF

Vliegvelden :

Lowell, Idaho, Verenigde Staten

breedte: 46-08-39N, lengte: 115-35-47W, hoogte: 480 m

Actueel weer

Dit bericht is 9 minuten geleden gemaakt, om 17:52 UTC
Weinig wind
Temperatuur 6°C
Vochtigheid 93%
Druk 1023 hPa

METAR: KP69 161752Z AUTO 00000KT 06/05 A3020 RMK AO1 SLP240 P0002 60018 T00560050 10056 20044 51010

Tijdstip: 10:01 (18:01 UTC)


TAF: ontbreekt

Waarnemingen en weersverwachtingen van meer dan 4000 vliegvelden (METAR en TAF).

De beschikbare stations zijn de gele en rode punten op de kaart.

Ga met uw muis naar het station om de naam te zien.

Klik dan om waarnemingen en weersverwachtingen te zien.

kaart wijzigen: klik op de groene knoppen met een zwart kruis om in te zoomen, op de groene knop met een streepje om uit te zoomen of op de groene pijlen voor aangrenzende kaarten.


METAR-TAF: